Results for 2019 Whiskey Off Road
If you have a question regarding you results, please email Results
Distance Category
Search for Name or Plate #
PlacePlate #NameDurationCityStateCategorySponsorAgeEvent Pics
1780Damiano Rivera De Rosales01:31:17TucsonAZFun Ride 9View
22617Scott Rusnak01:37:57ScottsdaleAZFun RideRoberts Communities53View
32610Dewee Debusk01:38:51Sierra VistaAZFun RideMom & Dad48View
42620Brandon Rumpf01:40:56Camp VerdeAZFun Ride 50View
52536Julian Lindholmfiske01:43:32PrescottAZFun RidePrescott College22View
62597Robert Barnum01:43:42YumaAZFun Ride 32View
71769Leonard Zito01:43:45MesaAZFun Ride 44View
82648Jeff Marquez01:44:48PhoenixAZFun Ride 46View
92549Steven Jezairian01:45:19PrescottAZFun Ride 15View
102751Tyrel Fenwick01:45:23SedonaAZFun RideSUGAR LOAF LODGE SEDONA32View
112663Tony Cerreta01:45:54GlendaleAZFun Ride 36View
122550Grayson Skinner01:45:55Cave CreekAZFun Ride 13View
132715Jeremiah Rundstrom01:46:15MesaAZFun RideFREERIDE BIKE CO./ MYSELF21View
142759Richard Baumann01:46:29TempeAZFun RideRAA -- Retirement Advisors of America56View
152781Alex Stewart01:48:30MesaAZFun Ride 22View
162752Michael Armstrong01:48:32MesaAZFun Ride 43View
172794Glen Hinshaw01:49:10PrescottAZFun RideRESA56View
182545Tyler Remlinger01:49:21PrescottAZFun Ride 13View
192765Sander Biesen01:51:44GilbertAZFun RideDynamix Devo9View
202613Gary Stewart01:52:05PhelanCAFun RideESI Grips61View
212738Steve Sweeney01:52:25Cave CreekAZFun Ride 47View
222775Chris Shaffer01:52:55PhoenixAZFun Ride 37View
232517Ethan Lofgren01:52:58Chino ValleyAZFun Ride 15View
242662Jonathan Gorman01:53:39PhoenixAZFun RidePivot Cycles33View
252771Bryan Tiglas01:54:11PrescottAZFun Ride 31View
262776Kevin Johnson01:54:49Camp VerdeAZFun Ride 41View
272701Ernesto Alvarez01:55:57DeweyAZFun Ride 52View
282619Shivek Gothwal01:56:16  Fun Ride 14View
292521Cameron Dick01:56:28PrescottAZFun Ride 15View
302717Zachary Cissell01:56:47PrescottAZFun Ride 14View
312811Patrick Lanahan01:56:54San JoseCAFun Ride 36View
32828Jeri Kremer01:58:02TucsonAZFun Ride 51View
332514Keith Dailey01:58:11Chino ValleyAZFun Ride 50View
342539Nathan Wilderle01:58:51PrescottAZFun Ride 13View
352564Nathen Hill01:59:22  Fun Ride 12View
362778Oren Johnson01:59:30Camp VerdeAZFun Ride 14View
372813Edward Dennis02:00:24PeoriaAZFun RideGiordana Cycling33View
382529Mclaren Holdsworth02:00:31PrescottAZFun Ride 12View
392558Brennan Johnstone02:01:01DeweyAZFun Ride 36View
402596Rick Brown02:01:02GilbertAZFun Ride 64View
412561Kristin Bigelow02:01:15PrescottAZFun Ride 42View
422791Greg Mengarelli02:01:41PrescottAZFun Ride 52View
432578Not Riding Shannon Herfindahl02:01:47  Fun Ride 35View
442803Tanner Sharp02:01:55Prescott ValleyAZFun Ride@AZ_Radventure19View
452591Christopher Kolnik02:02:35PhoenixAZFun Ride 37View
462693Jeff Horne02:02:36Santa ClaritaCAFun Ride 49View
472703Ryan Goodell02:02:40  Fun Ride 40View
482694Carla Albuquerque02:02:43  Fun Ride 43View
492603Vicki Weisman02:03:31PeoriaAZFun Ride 12View
502551Robert Walker02:04:17PrescottAZFun Ride 47View
512808Robert Hanus02:04:53PrescottAZFun Ride 53View
522584Jim Nelson02:05:09ScottsdaleAZFun Ride 40View
532598Cale Holden02:05:16  Fun Ride 17View
542671Jess Iannoli02:05:59LakesideAZFun Ride 44View
552650Ted Durham02:06:13PrescottAZFun Ride 54View
562654Beau Bullard02:06:14Camp VerdeAZFun Ride 20View
572657Andrew Breen02:07:55YumaAZFun Ride 34View
582535Tony Baccellia02:08:53Prescott ValleyAZFun Ride 35View
592595Richard Jankowiak02:09:08Colorado SpringsCOFun Ride 57View
602695Chris Rennie02:09:15Manhattan BeachCAFun Ride 54View
612686Kurt Schurkens02:09:21PinetopAZFun Ride 64View
622720Charles Whelan02:09:21Prescott ValleyAZFun Ride 14View
632607Kevin Skinner02:09:35Cave CreekAZFun RideWatermark Racing42View
642583Bella Morocco02:09:39  Fun Ride 13View
65373Dillon Shepherd02:10:31South JordanUTFun RideZone 5 Cycling10View
662782Brandon Shepherd02:10:31South JordanUTFun RideZone5 Cycling41View
67696Bruce Walls02:10:40PhoenixAZDistinguished Male 60View
682511Cory Carlson02:10:42PrescottAZFun Ride 43View
692729James Stuckey02:11:14MesaAZFun RideNone42View
702747Mark Parth02:11:22TempeAZFun Ride 44View
712806Philip Teisl02:11:22PrescottAZFun Ride 67View
722773David Blount02:11:48PrescottAZFun Ride 54View
732640Robert Breen02:12:31OracleAZFun Ride 59View
742687Robert Atlas02:12:31GoodyearAZFun Ride 52View
752651Miles Mcgowan02:12:35Chino ValleyAZFun Ride 55View
762753Max Fenwick02:12:51CornvilleAZFun Ride 30View
772815Justin First02:13:45  Fun Ride 50View
782649Rick Fee02:13:57PrescottAZFun Ride 46View
79816Charles Johnson02:14:20PrescottAZFun Ride 61View
802779Jeff Sharp02:14:36Prescott ValleyAZFun RideKnolly Bikes53View
812795Lane Johnson02:14:41MesaAZFun Ride 48View
822726Jarred Bogardus02:14:51Prescott ValleyAZFun Ride 26View
832525Nicholas Hualde02:15:39PrescottAZFun Ride 36View
842702John Connolly02:15:53Litchfield ParkAZFun Ride 52View
852668Ira Brown02:16:21PrescottAZFun Ride 60View
86274Matthew Mckelvey02:18:18PrescottAZFun Ride 57View
872533Kelli Bradstreet02:19:36PrescottAZFun Ride 55View
882575Tyler Torres02:19:55MesaAZFun Ride 16View
892727Caleb Torres02:19:55MesaAZFun Ride 45View
90308John Craft02:20:52PeoriaAZFun Ride 44View
9151Casey Franklin02:21:02PhoenixAZFun Ride 38View
922540Madeline Rounseville02:21:41PrescottAZFun Ride 18View
932541Jennie Rounseville02:21:42PrescottAZFun Ride 50View
942513Kelly Ireland02:21:46BuckeyeAZFun Ride 40View
952750Eric Gillies02:22:33TempeAZFun Ride 23View
962758Anthony Matley02:22:36ChandlerAZFun Ride 33View
972544Scott Aguilar02:22:48  Fun Ride 17View
982681Juan Soler02:22:52PeoriaAZFun Ride 43View
992543Not Riding Matt Fay02:22:56Prescott ValleyAZFun Ride 51View
1002788Donovan Nelson02:23:07PrescottAZFun RideGalpin Ford32View
1012816Steve Collins02:23:08PrescottAZFun Ride 67View
1022660Shawn Moats02:24:02PhoenixAZFun Ride 41View
1032740Jim Stacker02:24:04PeoriaAZFun Ride 57View
1042502Samuel Hester02:24:06AnthemAZFun Ride 43View
1052725Ryan Rumby02:24:27PhoenixAZFun RideTina and Zachary46View
106116Tim Wielinski02:24:34PrescottAZFun Ride 51View
1072739Kayla Stacker02:25:17PeoriaAZFun RideExhale24View
1082812Henry Tomasovitch02:25:17PrescottAZFun RideCharlie Brown - YMCA Personal Trainer15View
1092801Peter Tomasovitch02:25:20PrescottAZFun Ride 51View
1102764Stella Biesen02:27:20GilbertAZFun RideDynamix Devo9View
1112653Tobias Oberg02:27:22SahuaritaAZFun Ride 14View
1122659Scott Cerreta02:27:39FlagstaffAZFun RideNone48View
11344Ryan Lively02:27:41PhoenixAZFun Ride 39View
1142678Patti Keller02:28:42PhoenixAZFun Ride 59View
1152774Grant Slezak02:28:58PhoenixAZFun Ride 37View
1162548Gerald Frank02:30:37Prescott ValleyAZFun Ride 64View
1172748Jeffrey Miller02:30:50PhoenixAZFun Ride 31View
1182718James Weisman02:31:24PeoriaAZFun RideMom and Dad7View
1192604Bj Weisman02:31:28PeoriaAZFun Ride 47View
1202792John Dalton02:31:39PrescottAZFun Ride 15View
1212763Siena Biesen02:32:01GilbertAZFun RideDynamix Devo9View
1222552Logan Pace02:32:13Prescott ValleyAZFun Ride 13View
1232786Bryton Burke02:32:28Prescott ValleyAZFun Ride 10View
1242553Mike Pace02:32:31Prescott ValleyAZFun Ride 42View
1252519Ryan Closson02:33:21PrescottAZFun Ride 30View
1262705Sandy Bernales02:33:52AvondaleAZFun RideNone44View
1272565Dan Sarti02:33:54PrescottAZFun Ride 37View
1282577Devin Tomcik02:33:57Santa CruzCAFun Ride 40View
1292783Jim Bayley02:34:04MurrietaCAFun Ride 36View
1302566Jen Harrelson02:34:27AnthemAZFun RideHatch Toyota Racing43View
1312658Lee Faulk02:34:34PhoenixAZFun Ride 46View
1322652Justin Oberg02:34:52SahuaritaAZFun Ride 44View
133940Richard Merriman02:35:01TempeAZFun Ride 50View
1342684Mike Day02:35:40PrescottAZFun Ride 44View
1352528Benjamin Barrett02:35:51PrescottAZFun RideMichael Barrett12View
1362697Wyatt Renfro-coor02:35:51ArtesiaNMFun RideHigh Altitude, ESI Grips, Maxxis Tires12View
1372798Aiden Weaver02:37:05Fountain HillsAZFun Ride 14View
1382799Slade Weaver02:37:05Fountain HillsAZFun Ride 49View
1392524Monica Fabian02:37:19PrescottAZFun RideBear Development32View
1402542Lorrie Nebrig02:37:20PrescottAZFun RideHigh Gear Bike Shop59View
1412667Robert Forman02:37:29Fountain HillsAZFun Ride 54View
1422762Mike Cullen02:37:29LaveenAZFun Ride 45View
143939Casey Sattler02:38:23TempeAZFun Ride 35View
1442749Duane Wright02:38:31PrescottAZFun RidePhat boy yo52View
1452732Trey Hughes02:39:18AnthemAZFun Ride 52View
1462735Chase Mitchell02:39:59GlendaleAZFun Ride 28View
1472567Thomas Rusing02:40:18PrescottAZFun Ride 67View
1482754Dan Bidwell02:40:26PrescottAZFun Ride 55View
1492526Dean Futrell02:40:50Prescott ValleyAZFun Ride 27View
1502664William Bullard02:41:01Camp VerdeAZFun Ride 48View
1512777Anna Johnson02:41:01Camp VerdeAZFun Ride 16View
1522522Heather Closson02:41:13  Fun Ride 36View
1532674Antonio Meza02:41:28VailAZFun Ride 49View
1542555Konrad Kleinman02:42:42PrescottAZFun RideNorthern Az Endodontics11View
1552554Emily Kleinman02:42:43  Fun Ride 38View
156332Tonya Yates02:43:07AnthemAZWomen's Masters 51View
15762Robert Elder02:43:08TucsonAZFun Ride 47View
1582621Kenneth Skinner02:43:41PrescottAZFun Ride 46View
1592628Daniele Rosellini02:44:29Chino ValleyAZFun Ride 60View
1602616Heather Mackrain02:44:35PhoenixAZFun Rideomegaaddict.com51View
1612560Charlie Roberts02:44:39PrescottAZFun Ride 62View
1622807Jaime Gomez02:44:51TemeculaCAFun Ride 50View
1632632George Beitzel02:45:26PrescottAZFun Ride 50View
1642633Devin Beitzel02:45:26PrescottAZFun Ride 25View
1652571Bryant Welsh02:45:54PhoenixAZFun RideCoopers Glass Service33View
166228Walter Ploski02:46:08ScottsdaleAZMen's Masters (45 & Over) 50View
1672500Scott West02:46:44FlagstaffAZFun Ride 59View
1682608Mark Dolson02:46:44FullertonCAFun RideKaren Dolson59View
1692709Allan Coffee02:48:01Santa AnaAZFun Ride 52View
1702728Christopher Procyk02:48:20PhoenixAZFun RideMe, myself & I45View
1712581Eric Briot02:48:22BoiseIDFun Ride 56View
1722704Luis Lobato02:50:55TollesonAZFun Ride 43View
1732602William Shorty02:51:07El MirageAZFun Ride 36View
1742537Savannah Clancy02:51:11PrescottAZFun RidePrescott College22View
1752636John Baker02:51:28San DimasCAFun Ride 64View
1762711Trent Schmidt02:51:35GilbertAZFun Ridemom and dad16View
1772546Amanda Remlinger02:51:37PrescottAZFun Ride 43View
1782641John Litteer02:52:35PrescottAZFun Ride 53View
1792630Kira Anson02:53:36TucsonAZFun Ride 42View
1802507Carl Case02:54:00TucsonAZFun Ride 39View
1812506Richard Case02:54:01  Fun Ride 63View
1822734Tom Tillery02:55:08PrescottAZFun RideDry Gulch Steakhouse55View
1832698Gregory Galpin02:55:09PrescottAZFun RideGalpin Ford60View
1842700Loel Sanchez02:55:09PrescottAZFun RideGalpin55View
1852622Zack George02:55:40Rio RanchoNMFun RideFamily!39View
1862624Clara George02:55:40Rio RanchoNMFun RideFamily!11View
1872625Molly George02:55:40Rio RanchoNMFun RideFamily!13View
1882623Amanda George02:55:41Rio RanchoNMFun Ride 37View
1892562Mary Kay Naughton02:56:26PeoriaAZFun RidePosterhanger.com50View
1902755Jacob Allen02:56:30MesaAZFun Ride 13View
1912615Thomas Timmer02:58:44ScottsdaleAZFun Ride 59View
1922737Matthew Justice02:59:14GilbertAZFun Ride 45View
1932696Keith Privratsky03:00:59Newbury ParkCAFun Ride 57View
1942784Jeremy Lovett03:01:16ScottsdaleAZFun RideIntent Mortgage38View
1952785Jake Lovett03:01:17ScottsdaleAZFun RideIntent Mortgage10View
1962576Jerrold Adkins03:03:46PrescottAZFun Ride 61View
197196Brandon Gschweng03:04:31Chino ValleyAZFun Ride 37View
198192Dave Halle03:04:32PrescottAZFun Ride 50View
1992685Jason Rash03:04:32BuckeyeAZFun Ride 43View
20091Andrew Coffey03:05:02Litchfield ParkAZFun Ride 46View
201684Judi Doolittle03:06:48TijerasNMFun Ride 56View
2022527Thomas Garbade03:07:51Chino ValleyAZFun Ride 52View
2032532Rebecca Garbade03:07:51Chino ValleyAZFun Ride 41View
2042635Madeline Doiron03:08:19StoweVTFun RideStowe Youth Cycling12View
2052634Jason Doiron03:08:21StoweVTFun RideStowe Youth Cycling44View
2062570Matt Beyer03:08:25PhoenixAZFun Ride 37View
2072805Jason Allen03:08:27DeweyAZFun Ride 37View
2082710Jeff Schmidt03:09:12GilbertAZFun Ride 46View
2092756Henry Allen03:10:22MesaAZFun Ride 11View
2102757David Allen03:10:23MesaAZFun Ride 46View
2112629Basil Fernimos03:10:41  Fun Ride 36View
2122797Richard Traisci03:11:45LittletonCOFun Ride 65View
2132761Geric Kramarczyk03:12:54MaricopaAZFun Ride 16View
2142579Scott Mars03:14:17ScottsdaleAZFun Ride 53View
2152787Debbie Mumme03:15:51Arizona CityAZFun RideYouth On Track Cycling54View
2162760Jeff Kramarczyk03:16:10MaricopaAZFun Ride 43View
2172744Lleyton Dill03:16:29  Fun Ride 14View
2182742Steven Dill03:16:30ChandlerAZFun Ride 44View
2192743Aiden Dill03:16:31  Fun Ride 11View
2202766Not Riding Michael J. Kramarczyk Jr.03:16:47MaricopaAZFun Ride 45View
2212769Dayle Rounick03:16:54GlendaleAZFun Ride 58View
2222793Eugenio Quitangon03:17:00GoodyearAZFun Ride 35View
2232724Victor Kocho03:17:02Sun CityAZFun Ride 35View
2242599Luis Guillermo Lopez Aispuro03:17:08CuliacanSIFun RideWolfPacks11View
2252611Jennuel Libutan03:17:12Las VegasNVFun Ride 17View
2262612Ruel Libutan03:17:12Las VegasNVFun Ride 35View
2272676James Begley03:17:30MesaAZFun Ride 60View
228552Tom Fernwault03:17:42WashougalWAFun Ride 50View
2292733Cally Cross03:17:51PhoenixAZFun Ride 43View
2302708Chris Vanderbeek03:18:27AvondaleAZFun Ride 42View
2312645Joseph Brown03:18:44Running SpringsCAFun Ride 56View
2322646Karen Boone03:18:44Running SpringsCAFun Ride 54View
2332518Tristin Hardin03:18:48PrescottAZFun RideCandi&keith ride shop23View
2342814Mayla Perez03:18:48Camp VerdeAZFun Ride 24View
2352520Candi Dailey03:18:49Chino ValleyAZFun RideKeiths Dailey48View
2362768Sheri Dipietro03:19:14Long BeachCAFun Ride 45View
2372580Steve Peebles03:21:14PhxAZFun Ride 56View
2382721Jillian Fite03:21:21Queen CreekAZFun Ride 35View
2392534Rachel Campbell03:21:26Prescott ValleyAZFun RideHi Country Rec-V-Center52View
2402515Howard Law03:21:54Las VegasNVFun Ride 47View
2412656Christy Manning03:22:16Prescott ValleyAZFun Ride 39View
2422547Allen Schleicher03:22:18PrescottAZFun Ride 61View
2432713Jesus Gomez03:22:25VailAZFun Ride 51View
2442572Eric Palmer03:22:27Fountain HillsAZFun Ride 38View
2452802Colton Morgan03:22:44PrescottAZFun RideNa14View
2462582Chris Rike03:25:42PhoenixAZFun RideRikeBike, Trafficlawguys.com44View
2472585Rich Hoffecker03:25:42PhoenixAZFun RideRikeBike45View
2482563Justin Hill03:26:35Chino ValleyAZFun RideHigh Gear Bike Shop41View
2492605Christopher Isasi03:26:42Prescott ValleyAZFun Ride 25View
2502586Sierra King03:26:46Prescott ValleyAZFun Ride 16View
2512677Dwayne Petray03:31:29GoodyearAZFun Ride 55View
2522796Robert Dal Santo03:33:59PrescottAZFun Ride 67View
2532804Jackson Carlson03:34:27Park CityUTFun Ride 11View
2542789Christopher Hosking03:36:09PrescottAZFun Ride 54View
2552800David Fero03:36:10PrescottAZFun Ride 72View
2562683Veronica Ballesteros03:37:09TucsonAZFun Ride 49View
2572809Mike Trovato03:39:36Prescott ValleyAZFun Ride 55View
2582666Randal Hutson03:41:51Cave CreekAZFun Ride 38View
2592810Matthew Holt03:42:26WestminsterCAFun Ride 59View
2602588Barbara Tarin03:43:41KingmanAZFun Ride 51View
2612637James Landry03:44:17OntarioCAFun Ride 51View
2622642Jennifer Waltko03:46:11LakesideAZFun Ride 49View
2632643Kevin Waltko03:46:13  Fun Ride 49View
2642647Darim Nessler03:52:40  Fun Ride 27View
2652594Lee Simmons04:04:07CampbellCAFun Ride 55View
2662691Paul Scarselli04:04:31PhoenixAZFun Ride 60View
2672692Cindy Anaya04:04:31PhoenixAZFun Ride 62View
2682631Tyler Rogers04:08:11AvondaleAZFun Ride 28View
2692510Jeff Rogers04:08:27PhoenixAZFun Ride 59View
2702512Jennifer Dziak-turner04:08:28PhoenixAZFun Ride 48View
2712504James Clark04:10:12BuckeyeAZFun Ride 50View
2722503Michael Brown04:10:39FloresvilleTXFun Ride 40View
2732573Ronald Oliver04:10:40AlbuquerqueNMFun Ride 67View
2742716Heather Williams04:14:23Arizona CityAZFun RideYouth On Track Cycling30View
2752746Philip Mumme04:14:29Arizona City, AzAZFun RideDebbie Mumme59View
2762505Gabriel Nevarez04:15:49El PasoTXFun Ride 46View
2772508Eric Schrader04:15:59TucsonAZFun Ridenone67View
2782712Carolyn Gomez04:22:30VailAZFun Ride 49View
2792682Raymond Ballesteros04:24:21TucsonAZFun Ride 50View
2802589Colton Kleinman04:35:52Cave CreekAZFun RideWatermark Racing16View
2812770Tom Tran04:39:46Huntington BeachCAFun Ride 48View
2822592Otilio Perez-colon04:45:51  Fun Ride 35View